Weather History for Del Rio, TX

Change the Weather History Date:

Friday, May 10, 2013

  Actual Average Record
Temperature  
Mean Temperature 81 °F 78 °F  
Max Temperature 92 °F 89 °F 107 °F (2008)
Min Temperature 69 °F 67 °F 51 °F (1915)
Degree Days  
Heating Degree Days 0 0  
Month to date heating degree days 4 0  
Since 1 July heating degree days 1013 1375  
Cooling Degree Days 16 13  
Month to date cooling degree days 100 116  
Year to date cooling degree days 526 445  
Growing Degree Days 30 (Base 50)    
Moisture  
Dew Point 59 °F    
Average Humidity 54    
Maximum Humidity 79    
Minimum Humidity 28    
Precipitation  
Precipitation 0.24 in 0.07 in 3.62 in (1957)
Month to date precipitation 0.24 0.73  
Year to date precipitation 1.99 5.12  
Sea Level Pressure  
Sea Level Pressure 29.87 in    
Wind  
Wind Speed 7 mph (NE)    
Max Wind Speed 28 mph    
Max Gust Speed 38 mph    
Visibility 8 miles    
Events Rain    
T = Trace of Precipitation, MM = Missing Value Source: NWS Daily Summary

Daily Weather History Graph

Daily Weather History Graph

Search for Another Location

Airport:

Trip Planner

Search our weather history database for the weather conditions in past years. The results will help you decide how hot, cold, wet, or windy it might be!

Date:

Astronomy

May. 10, 2013 Rise Set
Actual Time 6:54 AM CDT 8:26 PM CDT
Civil Twilight 6:28 AM CDT 8:51 PM CDT
Nautical Twilight 5:58 AM CDT 9:22 PM CDT
Astronomical Twilight 5:26 AM CDT 9:54 PM CDT
Moon 7:20 AM CDT (5/10) 9:15 PM CDT (5/10)
Length of Visible Light 14h 22m
Length of Day
13h 31m
New Moon, 0% of the Moon is Illuminated
May 10
New Moon
May 17
First Quarter
May 24
Full
May 31
Last Quarter
Jun 8
New

Hourly Weather History & Observations

Time (CDT) Temp. Heat Index Dew Point Humidity Pressure Visibility Wind Dir Wind Speed Gust Speed Precip Events Conditions
12:53 AM 79.0 °F - 66.0 °F 64% 29.82 in 8.0 mi East 6.9 mph 16.1 mph N/A   Clear
1:53 AM 78.1 °F - 68.0 °F 71% 29.83 in 7.0 mi East 9.2 mph - N/A   Clear
2:15 AM 77.0 °F - 69.8 °F 78% 29.87 in 6.0 mi East 12.7 mph 18.4 mph N/A   Haze
2:53 AM 75.9 °F - 68.0 °F 76% 29.80 in 6.0 mi ESE 8.1 mph 19.6 mph N/A   Haze
3:53 AM 75.0 °F - 62.1 °F 64% 29.80 in 10.0 mi East 12.7 mph 18.4 mph N/A   Overcast
4:53 AM 73.9 °F - 62.1 °F 66% 29.80 in 9.0 mi East 9.2 mph - N/A   Mostly Cloudy
5:53 AM 73.9 °F - 55.0 °F 52% 29.81 in 10.0 mi NE 10.4 mph - N/A   Overcast
6:53 AM 72.0 °F - 53.1 °F 51% 29.84 in 10.0 mi ENE 10.4 mph - N/A   Mostly Cloudy
7:04 AM 71.6 °F - 53.6 °F 53% 29.89 in 10.0 mi ENE 12.7 mph - N/A   Mostly Cloudy
7:12 AM 71.6 °F - 53.6 °F 53% 29.89 in 10.0 mi ENE 13.8 mph - N/A   Mostly Cloudy
7:43 AM 69.8 °F - 53.6 °F 56% 29.90 in 10.0 mi ENE 12.7 mph - N/A   Mostly Cloudy
7:53 AM 70.0 °F - 53.1 °F 55% 29.86 in 10.0 mi NE 8.1 mph - N/A   Scattered Clouds
8:15 AM 71.6 °F - 53.6 °F 53% 29.92 in 10.0 mi ENE 4.6 mph - N/A   Overcast
8:53 AM 73.0 °F - 53.1 °F 49% 29.88 in 10.0 mi Variable 3.5 mph - N/A   Mostly Cloudy
9:53 AM 75.9 °F - 53.1 °F 45% 29.89 in 10.0 mi Calm Calm - N/A   Mostly Cloudy
10:53 AM 80.1 °F - 52.0 °F 38% 29.88 in 10.0 mi South 4.6 mph - N/A   Partly Cloudy
11:53 AM 84.0 °F 83.0 °F 55.9 °F 38% 29.88 in 10.0 mi SSE 10.4 mph - N/A   Clear
12:53 PM 88.0 °F 86.7 °F 57.0 °F 35% 29.85 in 9.0 mi NE 4.6 mph - N/A   Clear
1:53 PM 88.0 °F 86.5 °F 55.9 °F 34% 29.83 in 10.0 mi Variable 3.5 mph - N/A   Clear
2:53 PM 91.0 °F 88.7 °F 54.0 °F 28% 29.79 in 10.0 mi Variable 4.6 mph - N/A   Partly Cloudy
3:53 PM 91.0 °F 88.7 °F 54.0 °F 28% 29.77 in 10.0 mi North 5.8 mph - N/A   Mostly Cloudy
4:18 PM 82.4 °F 82.0 °F 57.2 °F 42% 29.82 in 1.8 mi NW 17.3 mph 27.6 mph 0.01 in Rain Light Rain
4:27 PM 80.6 °F 81.5 °F 60.8 °F 51% 29.84 in 3.0 mi West 9.2 mph 27.6 mph 0.04 in Rain Light Rain
4:53 PM 71.6 °F - 62.6 °F 73% 29.85 in 9.0 mi East 10.4 mph 21.9 mph N/A Rain Light Rain
5:46 PM 73.4 °F - 62.6 °F 69% 29.93 in 0.8 mi NW 26.5 mph 38.0 mph 0.00 in Rain Light Rain
5:53 PM 69.1 °F - 63.0 °F 81% 29.86 in 0.5 mi North 10.4 mph 38.0 mph 0.18 in Rain Light Rain
5:56 PM 69.8 °F - 64.4 °F 83% 29.90 in 2.0 mi Variable 6.9 mph 21.9 mph 0.00 in Rain Light Rain
6:03 PM 69.8 °F - 64.4 °F 83% 29.90 in 10.0 mi Variable 3.5 mph - 0.00 in Rain Light Rain
6:53 PM 75.9 °F - 64.9 °F 69% 29.87 in 10.0 mi Variable 3.5 mph - 0.00 in   Clear
7:53 PM 77.0 °F - 57.9 °F 52% 29.89 in 10.0 mi NNE 12.7 mph 23.0 mph N/A   Clear
8:53 PM 73.9 °F - 57.9 °F 57% 29.94 in 10.0 mi NNW 4.6 mph - N/A   Clear
9:53 PM 73.9 °F - 57.9 °F 57% 29.97 in 10.0 mi North 8.1 mph - N/A   Overcast
10:53 PM 72.0 °F - 57.9 °F 61% 30.03 in 10.0 mi NNW 4.6 mph - N/A   Scattered Clouds
11:53 PM 71.1 °F - 57.0 °F 61% 30.01 in 10.0 mi NNW 6.9 mph - N/A   Clear